Regional Weather Roundup
Issued by NWS Kansas City/Pleasant Hill, MO

Home | Current Version | Previous Version | Text Only | Print | Product List | Glossary On
Versions: 1 2 3 4 5 6 7 8 9 10 11 12 13 14 15 16 17 18 19 20 21 22 23 24 25 26 27 28 29 30 31 32 33 34 35 36 37 38 39 40 41 42 43 44 45 46 47 48 49 50
000
ASUS43 KEAX 291904
RWREAX

WEATHER ROUNDUP FOR EASTERN KANSAS AND NORTHWEST MISSOURI
NATIONAL WEATHER SERVICE KANSAS CITY/PLEASANT HILL MO
200 PM CDT TUE JUL 29 2014

KSZ040-057-103>105-MOZ028-029-037-043-292000-
...KANSAS CITY METROPOLITAN AREA...

CITY           SKY/WX    TMP DP  RH WIND       PRES   REMARKS
K.C. INTL      PTSUNNY   80  57  45 VRB7      30.17F
K.C. DOWNTOWN  MOSUNNY   80  55  42 NW7       30.15F
LEES SUMMIT    PTSUNNY   80  55  42 VRB6      30.16F
OLATHE - IXD   MOSUNNY   80  54  40 MISG      30.17F
OLATHE - OJC   PTSUNNY   80  55  42 NW8       30.16F
LAWRENCE       PTSUNNY   82  59  45 N9        30.16F

$$

MOZ001>008-011>017-020>025-030>033-038>040-044>046-053-054-292000-
...NORTHERN AND CENTRAL MISSOURI...

CITY           SKY/WX    TMP DP  RH WIND       PRES   REMARKS
ST. JOSEPH     MOSUNNY   79  59  50 NW7       30.16F
MOSBY          PTCLDY    79  55  44 N7        30.15F
WHITEMAN AFB   MOSUNNY   81  44  27 N8        30.15F
CLINTON        MOSUNNY   81  59  47 NW5       30.16F
SEDALIA        MOSUNNY   81  60  48 NW10      30.16F
WARSAW         NOT AVBL
CHILLICOTHE      N/A     78  57  48 N3        30.17F
KIRKSVILLE     MOSUNNY   78  54  43 CALM      30.16F

$$

MOZ041-047>049-056>058-063>065-088>090-097-292000-
...EASTERN AND SOUTHERN MISSOURI...

CITY           SKY/WX    TMP DP  RH WIND       PRES   REMARKS
ST. LOUIS INTL MOSUNNY   77  55  46 NW9       30.14F
SPIRIT OF STL  PTSUNNY   80  52  37 N12       30.12F
COLUMBIA       MOSUNNY   78  55  44 VRB6      30.16F
JEFFERSON CITY MOSUNNY   79  56  45 NW10      30.14F
ROLLA          PTSUNNY   78  52  40 NW7G16    30.14F
LEBANON        SUNNY     82  52  34 NW10      30.17F
OSAGE BEACH    MOSUNNY   81  54  39 N10       30.15F
SPRINGFIELD    MOSUNNY   82  54  37 NW9       30.16F
BRANSON        MOSUNNY   84  54  34 NW6       30.18F
NEVADA         PTSUNNY   79  61  53 NW5       30.17F
JOPLIN         PTSUNNY   84  56  38 W8        30.17S
WEST PLAINS    CLOUDY    78  55  44 N6        30.17F
MALDEN         SUNNY     79  54  41 NE8       30.15S

$$

IAZ060-094-KSZ022-034>040-054-083-096-NEZ052-066-093-292000-
...KANSAS...SOUTHEAST NEBRASKA AND IOWA...

CITY           SKY/WX    TMP DP  RH WIND       PRES   REMARKS
TOPEKA         PTSUNNY   81  57  43 VRB6      30.17F
MANHATTAN      PTSUNNY   74  59  59 CALM      30.19F
EMPORIA        PTSUNNY   72  60  66 NE5       30.19F
CHANUTE        CLOUDY    73  60  63 N7        30.19S
WICHITA        MOSUNNY   88  60  38 VRB3      30.14F
OMAHA          PTSUNNY   78  51  38 N13       30.18F
LINCOLN        MOSUNNY   82  51  34 NW9       30.19F
FALLS CITY     MOSUNNY   80  56  43 VRB5      30.16F
LAMONI         CLOUDY    74  55  51 NW6       30.17F
DES MOINES     MOSUNNY   75  51  43 N7        30.15F

$$




USA.gov is the U.S. government's official web portal to all federal, state and local government web resources and services.